Погода в Вырице

Россия / Санкт-Петербург и Ленинградская область     59°25′02″N   30°20′49″E
темп.,
°C
ветер,
м/с
пор.,
м/с
влажн.,
%
обл.,
%
осадки,
мм/ч
давл.,
гПа
погр.,
м
24 января, вс
вс2400:00+1ю3894100 0.0 1004368
03:00+2ююв41198100 0.0 1003482
06:00+1ююв51494100 0.0 1001600
09:00+2ю41297100 0.2 1001543
12:00+1ю41098100 0.4 1001498
15:00+1ю41196100 0.4 1001507
18:00+1ю51196100 0.0 1002533
21:00+1ююв51197100 0.6 1001623
25 января, пн
пн2500:00+1ююв41097100 0.2 1000455
03:00+2юв41198100 0.8 998372
06:00+3ююв41198100 0.8 997402
09:00+3ю41198100 1.5 998442
12:00+3ю51297100 0.1 1000534
15:00+2ю41096100 0.1 1002557
18:00+2ю4996100 0.0 1003487
21:000ююв31095100 0.0 1004348
26 января, вт
вт2600:000юв2598100 0.0 1004179
03:00+1вюв2799100 0.1 1004230
06:00+2юв3898100 0.1 1003318
09:00+1вюв4897100 0.1 1002492
12:00+2вюв41097100 0.0 1001387
15:00+2вюв31197100 0.7 1000493
18:00+2вюв41192100 0.0 999637
21:00+1вюв51197100 0.1 999754
27 января, ср
ср2700:00+1юв41098100 0.6 999541
03:000юв41090100 1.1 998823
06:00−1юв4108694 0.0 997732
09:00−1вюв4109297 0.1 996862
12:00−1вюв499599 0.6 996700
15:00−1юв4994100 1.2 996728
18:00−1юв4996100 1.2 996768
21:00−1ююв4995100 2.2 996696
28 января, чт
чт2800:00−1ююв3896100 0.4 996509
03:00−1ю499498 0.6 997549
06:00−1ююз368991 0.1 997522
09:00−3юз369193 0.1 998424
12:00−2ююз3587100 0.1 999579
15:00−1ююз2483100 0.1 999598
18:00−2ю2488100 0.1 1000253
21:00−2ююв1390100 0.1 1000154